Regional Weather Roundup
Issued by NWS

Home | Current Version | Previous Version | Text Only | Print | Product List | Glossary Off
Versions: 1 2 3 4 5 6 7 8 9 10 11 12 13 14 15 16 17 18 19 20 21 22 23 24 25 26 27 28 29 30 31 32 33 34 35 36 37 38 39 40 41 42 43 44 45 46 47 48 49 50

000
ASUS43 KLOT 030400
RWRIL

ILLINOIS REGIONAL WEATHER ROUNDUP
NATIONAL WEATHER SERVICE CHICAGO/ROMEOVILLE IL
1100 PM CDT TUE JUN 02 2015

NOTE: "FAIR" INDICATES FEW OR NO CLOUDS BELOW 12,000 FEET WITH NO
SIGNIFICANT WEATHER AND/OR OBSTRUCTIONS TO VISIBILITY.

* THESE STATIONS ARE NOT UNDER NWS QUALITY CONTROL. THEY ALSO MAY NOT
  REPORT WEATHER SUCH AS PRECIPITATION OR FOG.

ILZ001-002-007-009-015-016-024-030500-
NORTHWEST ILLINOIS

CITY           SKY/WX    TMP DP  RH WIND       PRES   REMARKS
MOLINE         PTCLDY    61  51  70 S7        30.03S
STERLING*      CLEAR     63  46  55 S3        30.06S
$$

ILZ003-004-008-010-011-017-018-030500-
NORTH CENTRAL ILLINOIS

CITY           SKY/WX    TMP DP  RH WIND       PRES   REMARKS
ROCKFORD       MOCLDY    61  45  55 S8        30.08R
$$

ILZ005-006-012>014-019>023-030500-
NORTHEAST ILLINOIS

CITY           SKY/WX    TMP DP  RH WIND       PRES   REMARKS
CHICAGO-OHARE  PTCLDY    54  46  74 SE9       30.09F
CHICAGO-MIDWAY MOCLDY    57  45  64 SE5       30.11R
AURORA         PTCLDY    58  48  69 SE7       30.08F
WAUKEGAN       CLEAR     47  45  93 CALM      30.09S
DUPAGE AIRPORT CLEAR     57  46  66 SE7       30.08F
WHEELING       CLEAR     53  44  71 SE5       30.10F
NORTHERLY ISL    N/A     53  46  77 E3          N/A
$$

LMZ740>746-030500-
SOUTHERN LAKE MICHIGAN

STATION/POSITION SKY/WX   TEMP    WIND        PRES    VSBY  WAVE
                          AIR SEA DIR/SP/G                  HT/PER
                          (F)     (DEG/KT/KT) (MB)    (MI)  (FT/S)
SOUTHERN BUOY              43 38   90/  6/  8 1020.0F         0
HARRISON CRIB              52     100/  7/  9   N/A
BURNHAM HARBOR             53     100/  3/  4   N/A
CALUMET HARBOR             55      70/  6/  9   N/A
BURNS HARBOR                       80/  4/  7 1020.3R
MICHIGAN CITY              56      60/  5/  7   N/A
MICHIGAN CITY 6N           57 57  100/  8/ 10   N/A           1/ 2
ST. JOSEPH                 55 55   80/  6/  6   N/A           1/ 2
$$

ILZ025>027-034>036-040-047-049-050-058-095>099-030500-
WEST-CENTRAL ILLINOIS

CITY           SKY/WX    TMP DP  RH WIND       PRES   REMARKS
QUINCY         PTCLDY    63  56  78 E3        30.03F
$$

ILZ028>032-037-038-041>044-048-051>054-059>061-030500-
CENTRAL ILLINOIS

CITY           SKY/WX    TMP DP  RH WIND       PRES   REMARKS
DECATUR        CLEAR     61  56  83 CALM      30.06F
PEORIA         CLEAR     62  53  72 E3        30.06S
SPRINGFIELD    CLEAR     62  57  83 SE5       30.05S
TAYLORVILLE    NOT AVBL
$$

ILZ033-039-045-046-055>057-062-063-030500-
EAST-CENTRAL ILLINOIS

CITY           SKY/WX    TMP DP  RH WIND       PRES   REMARKS
CHAMPAIGN      CLEAR     61  55  81 E12       30.08R
MATTOON        CLEAR     59  57  93 CALM      30.06S
$$

ILZ079-100>102-030500-
SOUTHWEST ILLINOIS

CITY           SKY/WX    TMP DP  RH WIND       PRES   REMARKS
BELLEVILLE     PTCLDY    62  60  92 SE7       30.05F
CAHOKIA*       CLEAR     61  56  83 SE6       30.06S
$$

ILZ064>066-069>071-074>076-080>082-084>086-088>090-092>094-030500-
SOUTH-CENTRAL ILLINOIS

CITY           SKY/WX    TMP DP  RH WIND       PRES   REMARKS
CARBONDALE     CLOUDY    62  57  83 E3        30.08R
MT. VERNON     CLEAR     55  52  88 CALM      30.09S
$$

ILZ067-068-072-073-078-083-087-091-030500-
SOUTHEAST ILLINOIS

CITY           SKY/WX    TMP DP  RH WIND       PRES   REMARKS
LAWRENCEVILLE  CLOUDY    61  58  90 E7        30.08R
$$

ABBREVIATIONS USED IN REMARKS
   TC - TEMPERATURE IN CELSIUS
  WCI - WIND CHILL INDEX
   HX - HEAT INDEX
  VSB - VISIBILITY
$$




USA.gov is the U.S. government's official web portal to all federal, state and local government web resources and services.